CAPE
5 1 0 1 1 0 1 3 3 4 5 0 3 5 5 2 1 4 4 4 3 2 3 1 0 2 2 1 0 0 0 0 72 16 0 1 8 24 1 0 0 0 0 0 0 0 0
1 2 1 1 0 4 6 5 6 5 6 5 2 3 2 1 4 2 2 0 2 2 3 3 0 2 1 0 0 0 0 0 4 0 9 1 32 23 0 0 0 0 0 0 0 0 0
5 2 2 5 6 5 3 5 7 4 4 4 3 6 7 3 0 4 0 1 6 2 3 3 0 4 4 0 0 0 0 0 8 0 0 2 24 23 0 0 0 0 0 0 0 0 0
4 3 4 3 0 3 6 4 5 4 5 4 4 5 1 1 2 3 2 3 1 4 3 1 1 6 0 0 0 0 0 0 1 0 1 0 3 14 0 0 0 0 0 0 0 0 0
2 2 4 5 5 5 6 4 4 3 3 3 3 5 4 4 1 2 0 0 0 1 2 2 4 6 0 0 0 0 0 0 21 4 8 0 0 4 0 0 0 0 0 0 0 0 0
1 3 3 4 3 3 3 4 4 3 2 2 2 1 2 2 2 0 0 0 0 0 5 6 19 2 0 0 0 0 0 1 10 2 16 2 0 2 0 0 0 0 0 0 0 0 0
1 3 3 3 3 3 3 3 3 3 2 1 1 0 0 0 0 0 0 0 0 0 14 0 0 0 0 0 0 0 0 2 0 0 0 1 0 0 2 0 3 0 0 0 0 0 0
1 1 1 2 3 3 3 3 2 3 2 1 1 0 0 0 0 0 0 0 0 1 0 0 0 0 0 0 0 0 6 7 3 0 0 0 0 0 0 1 0 0 0 0 0 0 0
1 1 2 3 3 3 3 4 2 3 3 3 2 1 0 0 0 0 0 0 0 6 0 0 0 0 0 0 0 0 2 15 6 0 0 0 0 0 0 0 0 0 0 0 0 0 0
2 1 3 3 3 3 3 3 2 3 4 3 2 1 0 0 0 0 0 0 0 1 0 0 0 0 0 0 0 0 0 10 5 6 0 0 0 0 0 0 5 0 0 0 0 0 0
1 1 2 1 3 3 3 2 2 2 2 1 2 1 0 1 0 0 0 0 0 1 0 0 0 0 0 0 0 0 0 7 4 2 0 0 0 0 0 0 0 0 4 0 0 0 1
1 1 1 1 3 1 1 1 1 1 1 0 0 0 0 0 0 0 0 0 0 0 0 0 0 0 0 1 0 0 0 3 2 4 1 0 0 0 0 0 3 1 0 0 0 0 0
0 0 1 1 1 1 1 1 1 0 0 0 0 0 0 0 0 0 0 0 0 0 0 0 0 1 6 0 0 4 28 18 12 0 0 0 0 0 0 0 0 1 0 0 0 0 0
1 0 2 2 1 2 2 3 2 0 0 0 0 0 0 0 0 0 0 0 0 0 0 1 1 4 18 43 33 45 46 26 53 30 15 2 0 0 0 0 0 0 0 0 0 0 0
2 0 1 1 4 3 3 2 1 0 0 0 0 0 0 0 0 0 6 0 0 0 5 10 2 1 0 17 39 23 36 30 50 38 14 6 0 0 0 0 0 0 0 0 0 0 0
0 0 0 1 1 2 1 1 0 0 0 0 0 0 0 0 0 0 1 0 0 0 10 13 0 1 0 2 0 0 9 13 20 29 24 9 13 7 0 0 0 0 0 0 0 0 0
0 0 0 1 2 2 1 0 0 0 0 0 0 0 0 0 0 2 0 0 0 0 13 14 10 6 1 0 0 0 3 11 46 42 58 60 13 0 0 0 0 1 3 0 0 1 1
0 0 1 3 2 2 1 0 0 0 0 0 0 0 0 0 0 0 0 0 8 19 1 0 2 0 0 1 0 2 0 18 54 56 37 39 38 1 0 0 0 3 7 17 4 0 0
0 0 0 2 2 1 2 1 0 0 0 0 0 0 0 1 0 0 0 0 0 0 0 0 0 3 5 0 0 1 0 0 0 0 11 23 5 0 0 0 1 0 0 0 1 0 0
0 0 0 2 2 1 0 0 0 0 0 0 0 0 0 3 2 3 1 0 0 0 0 0 0 0 0 0 0 0 0 0 2 4 32 23 10 1 0 0 0 0 0 0 1 0 0
0 0 0 3 0 1 0 0 0 0 0 0 0 0 0 0 0 0 0 0 0 0 0 0 0 0 0 0 0 0 0 0 0 0 2 18 4 4 2 0 0 0 0 0 0 0 0
0 0 0 0 0 0 0 0 0 0 0 0 0 0 0 0 0 0 0 0 0 0 0 0 0 0 0 0 0 0 0 0 0 0 0 6 0 0 0 0 0 0 0 0 0 0 0
0 0 2 0 0 1 0 0 0 0 0 0 0 0 0 0 0 0 0 0 0 0 0 0 0 0 0 0 0 0 0 0 0 0 0 0 0 0 0 0 0 0 0 0 0 0 0
0 1 0 0 0 0 0 0 2 0 0 0 0 0 0 0 0 0 0 0 0 0 0 0 0 0 0 0 0 0 0 0 0 0 0 0 0 0 0 0 0 0 0 0 0 0 0
0 0 0 0 0 0 0 2 1 1 0 0 0 0 0 0 0 0 0 0 0 0 0 0 0 0 0 0 0 0 0 0 0 0 0 0 0 0 0 0 0 0 0 0 0 0 0
0 0 0 0 0 0 1 2 0 2 0 0 0 0 0 0 0 0 0 0 0 0 0 0 0 0 0 0 0 0 0 0 0 0 0 0 0 0 0 0 0 0 0 0 0 0 0
1 0 0 0 0 1 11 11 8 2 2 0 0 0 0 0 0 0 0 0 0 0 0 0 0 0 0 0 0 0 0 0 0 0 0 0 0 0 0 0 0 0 0 0 0 0 0
5 0 0 0 0 0 3 17 15 3 6 0 0 0 0 0 0 0 0 0 0 0 0 0 0 0 0 0 0 0 0 0 0 0 0 0 0 1 0 0 0 0 0 0 0 0 0
4 0 0 0 0 0 5 8 3 5 12 0 0 1 0 1 0 0 0 0 0 0 0 0 0 0 0 0 0 0 0 0 0 0 0 0 0 0 0 0 0 0 0 0 0 0 0
CIN
-0 -1 -0 -0 -0 -0 -1 -0 -0 -0 -0 -0 -0 -0 -0 -0 -0 -0 -0 -0 -0 -0 -0 -0 -0 -0 -2 -0 -0 -0 -0 -0 -16 -31 -23 -28 -15 -3 -0 -0 -0 -0 -0 -0 -0 -0 -7
-1 -1 -0 -0 -1 -0 -0 -0 -0 -0 -0 -0 -0 -0 -0 -0 -0 -0 -0 -0 -0 -0 -0 -0 -0 -0 -2 -0 -0 -0 -0 -4 -14 -0 -33 -12 -10 -16 -0 -0 -0 -0 -0 -0 -0 -0 -0
-0 -0 -0 -0 -0 -0 -0 -0 -0 -0 -0 -0 -0 -0 -0 -1 -0 -0 -0 -0 -1 -0 -0 -0 -0 -0 -0 -0 -0 -0 -0 -0 -28 -0 -2 -39 -27 -9 -1 -0 -0 -0 -0 -0 -0 -0 -0
-0 -0 -0 -0 -0 -0 -0 -0 -0 -0 -0 -0 -0 -0 -0 -0 -1 -0 -0 -0 -0 -0 -0 -0 -1 -2 -0 -0 -0 -0 -0 -0 -7 -0 -6 -0 -17 -16 -0 -0 -0 -0 -0 -0 -0 -0 -0
-0 -0 -0 -0 -0 -0 -0 -0 -0 -0 -0 -0 -0 -0 -0 -0 -0 -0 -0 -0 -0 -0 -0 -1 -2 -2 -0 -0 -0 -0 -0 -0 -19 -6 -8 -0 -0 -6 -0 -0 -0 -0 -0 -0 -0 -0 -0
-0 -0 -0 -0 -0 -0 -0 -0 -0 -0 -0 -0 -0 -0 -0 -0 -0 -0 -0 -0 -0 -0 -1 -2 -0 -0 -0 -0 -0 -0 -0 -2 -5 -4 -0 -3 -3 -7 -1 -4 -0 -0 -0 -0 -0 -0 -0
-0 -0 -0 -0 -0 -0 -0 -0 -0 -0 -0 -0 -0 -0 -0 -0 -0 -0 -0 -0 -0 -0 -1 -0 -0 -0 -0 -0 -0 -0 -0 -8 -3 -0 -2 -3 -0 -0 -4 -0 -13 -0 -0 -0 -0 -0 -0
-0 -0 -0 -0 -0 -0 -0 -0 -0 -0 -0 -0 -0 -0 -0 -0 -0 -0 -0 -0 -0 -1 -0 -0 -0 -0 -0 -0 -0 -0 -12 -4 -1 -0 -0 -0 -0 -0 -0 -4 -0 -0 -0 -0 -0 -0 -0
-0 -0 -0 -0 -0 -0 -0 -0 -0 -0 -0 -0 -0 -0 -0 -0 -0 -0 -0 -0 -0 -19 -0 -0 -0 -0 -0 -0 -0 -0 -3 -4 -1 -0 -0 -0 -0 -0 -0 -1 -3 -0 -0 -0 -0 -0 -0
-0 -0 -0 -0 -0 -0 -0 -0 -0 -0 -0 -0 -0 -0 -0 -0 -0 -0 -0 -0 -0 -14 -0 -0 -0 -0 -0 -0 -0 -0 -0 -4 -6 -0 -15 -0 -0 -0 -0 -0 -10 -0 -0 -0 -0 -0 -0
-0 -0 -0 -0 -0 -0 -0 -1 -0 -0 -0 -0 -0 -0 -0 -0 -0 -0 -0 -0 -0 -3 -0 -0 -0 -0 -0 -0 -0 -0 -0 -7 -1 -4 -0 -0 -0 -0 -0 -0 -18 -0 -19 -1 -0 -25 -3
-0 -0 -0 -0 -0 -0 -0 -0 -0 -0 -0 -0 -0 -0 -0 -0 -0 -0 -0 -0 -0 -0 -0 -0 -0 -0 -1 -0 -0 -0 -0 -5 -5 -4 -7 -2 -0 -0 -0 -0 -9 -9 -0 -0 -0 -0 -2
-0 -0 -0 -0 -0 -0 -0 -0 -0 -0 -0 -0 -0 -0 -0 -0 -0 -0 -0 -0 -0 -0 -0 -0 -0 -41 -30 -0 -9 -18 -15 -25 -20 -7 -0 -0 -0 -0 -0 -0 -0 -0 -0 -0 -0 -0 -0
-0 -0 -0 -0 -0 -0 -0 -0 -0 -0 -0 -0 -0 -0 -0 -0 -0 -0 -0 -0 -0 -0 -0 -73 -64 -51 -12 -20 -35 -37 -17 -34 -30 -7 -1 -1 -0 -0 -0 -0 -0 -0 -0 -0 -0 -0 -0
-0 -0 -0 -0 -1 -0 -0 -0 -0 -0 -0 -0 -0 -0 -0 -0 -0 -0 -2 -0 -0 -0 -40 -31 -42 -4 -10 -14 -14 -8 -8 -8 -14 -22 -4 -11 -1 -0 -0 -0 -0 -0 -0 -0 -0 -0 -0
-0 -0 -0 -0 -0 -0 -0 -0 -0 -0 -0 -0 -0 -0 -0 -0 -0 -0 -1 -0 -0 -0 -39 -20 -9 -3 -0 -0 -0 -1 -0 -4 -3 -26 -33 -11 -1 -20 -0 -0 -4 -0 -0 -0 -0 -0 -0
-0 -0 -0 -0 -0 -0 -0 -0 -0 -0 -0 -0 -0 -0 -0 -0 -1 -3 -0 -0 -0 -10 -14 -7 -2 -6 -2 -0 -0 -0 -0 -6 -23 -19 -21 -9 -7 -0 -0 -0 -0 -0 -3 -0 -1 -2 -3
-0 -0 -0 -0 -0 -0 -0 -0 -0 -0 -0 -0 -0 -0 -0 -0 -0 -2 -0 -0 -9 -6 -21 -1 -45 -0 -0 -0 -1 -0 -0 -0 -41 -31 -3 -20 -4 -5 -0 -0 -0 -11 -2 -8 -1 -0 -0
-0 -0 -0 -0 -0 -0 -0 -0 -0 -0 -0 -0 -0 -0 -0 -7 -0 -0 -0 -0 -0 -0 -0 -0 -0 -0 -1 -0 -0 -0 -0 -0 -3 -0 -1 -9 -2 -0 -0 -4 -0 -3 -0 -0 -0 -0 -0
-0 -0 -0 -0 -0 -0 -0 -0 -0 -0 -0 -0 -0 -0 -0 -8 -5 -3 -2 -0 -0 -0 -0 -0 -0 -0 -0 -0 -0 -0 -0 -0 -3 -0 -0 -2 -2 -1 -0 -0 -0 -0 -0 -0 -4 -0 -0
-0 -0 -0 -0 -0 -0 -0 -0 -0 -0 -0 -0 -0 -0 -0 -0 -0 -0 -0 -0 -0 -0 -0 -0 -0 -0 -0 -0 -0 -0 -0 -0 -0 -0 -3 -5 -1 -4 -17 -4 -0 -0 -0 -0 -0 -0 -0
-0 -0 -0 -0 -0 -0 -0 -0 -0 -0 -0 -0 -0 -0 -0 -0 -0 -0 -0 -0 -0 -0 -0 -0 -0 -0 -0 -0 -0 -0 -0 -0 -0 -0 -0 -31 -0 -0 -0 -0 -0 -0 -0 -0 -0 -0 -0
-0 -0 -0 -0 -0 -0 -0 -0 -0 -0 -0 -0 -0 -0 -0 -0 -0 -0 -0 -0 -0 -0 -0 -0 -0 -0 -0 -0 -0 -0 -0 -0 -0 -0 -0 -0 -0 -0 -0 -0 -0 -0 -0 -0 -0 -0 -0
-0 -0 -0 -0 -0 -0 -0 -0 -0 -0 -0 -0 -0 -0 -0 -0 -0 -0 -0 -0 -0 -0 -0 -0 -0 -0 -0 -0 -0 -0 -0 -0 -0 -0 -0 -0 -0 -0 -0 -0 -0 -0 -0 -0 -0 -0 -0
-0 -0 -0 -0 -0 -0 -0 -0 -0 -0 -0 -0 -0 -0 -0 -0 -0 -0 -0 -0 -0 -0 -0 -0 -0 -0 -0 -0 -0 -0 -0 -0 -0 -0 -0 -0 -0 -0 -0 -0 -0 -0 -0 -0 -0 -0 -0
-0 -0 -0 -0 -0 -0 -0 -0 -0 -0 -0 -0 -0 -0 -0 -0 -0 -0 -0 -0 -0 -0 -0 -0 -0 -0 -0 -0 -0 -0 -0 -0 -0 -0 -0 -0 -0 -0 -0 -0 -0 -0 -0 -0 -0 -0 -0
-0 -0 -0 -0 -0 -0 -0 -2 -0 -0 -1 -0 -0 -0 -0 -0 -0 -0 -0 -0 -0 -0 -0 -0 -0 -0 -0 -0 -0 -0 -0 -0 -0 -0 -0 -0 -0 -0 -0 -0 -0 -0 -0 -0 -0 -0 -0
-0 -0 -0 -0 -0 -0 -0 -0 -0 -0 -1 -0 -0 -0 -0 -1 -0 -0 -0 -0 -1 -0 -0 -0 -0 -0 -0 -0 -0 -0 -0 -0 -0 -0 -0 -0 -0 -4 -0 -0 -0 -0 -0 -0 -0 -0 -0
-0 -0 -0 -0 -0 -0 -1 -2 -0 -0 -0 -0 -0 -17 -0 -1 -0 -0 -0 -0 -0 -0 -0 -0 -0 -0 -0 -0 -0 -0 -0 -0 -0 -0 -0 -0 -0 -1 -0 -1 -0 -0 -0 -0 -0 -0 -0
Wind_Speed
29 30 31 32 32 33 33 33 33 33 32 30 29 28 25 21 18 16 13 12 10 9 9 9 9 13 14 11 8 10 13 13 12 12 11 7 1 15 19 23 20 25 20 21 16 23 24
29 30 31 32 32 33 33 33 33 33 32 32 32 31 28 25 21 18 14 12 12 10 9 9 9 12 11 11 11 12 13 13 12 11 10 6 5 13 21 22 27 20 19 20 20 18 21
29 30 31 32 32 33 33 34 34 34 34 34 35 33 31 26 22 18 16 13 11 11 11 9 9 10 9 5 11 11 11 11 10 11 11 8 6 4 18 20 21 21 18 22 22 21 19
29 30 31 32 33 33 34 34 35 35 35 36 36 35 33 29 26 23 18 15 13 10 10 10 9 11 7 9 10 6 7 9 11 9 7 5 5 9 15 12 18 24 25 29 25 22 22
28 30 31 32 33 34 35 35 35 36 36 36 36 36 35 31 29 25 22 17 15 13 10 10 12 12 8 11 8 8 6 7 9 8 6 4 0 2 6 2 18 23 29 29 25 23 24
28 29 31 32 33 34 35 36 36 37 37 37 37 36 35 32 29 28 26 19 16 16 13 11 10 13 9 11 10 10 9 7 8 8 8 6 7 11 10 13 14 13 29 29 31 27 27
28 30 31 32 34 35 36 37 37 38 38 38 38 37 36 33 31 31 27 22 22 19 13 13 13 11 13 12 11 8 8 7 8 5 4 5 7 15 14 16 7 6 23 30 30 28 29
29 30 31 32 34 36 37 38 39 39 39 39 39 39 37 34 30 28 22 23 22 20 24 13 11 10 7 11 11 8 6 4 4 1 1 1 11 10 8 11 13 8 10 26 29 27 31
28 30 32 33 34 36 37 38 39 40 41 40 40 39 38 35 31 22 23 22 21 22 25 23 15 11 8 5 9 8 2 5 5 4 5 7 10 9 10 10 11 12 16 19 29 27 30
28 30 32 34 35 36 37 39 40 41 41 41 40 39 38 36 25 25 24 23 23 22 31 26 18 15 9 6 12 8 5 9 11 9 9 10 16 14 12 14 14 17 21 25 24 23 27
30 30 31 34 36 38 39 41 42 42 42 41 40 39 37 30 26 25 23 24 22 22 38 22 18 14 12 9 15 14 12 12 12 13 13 16 17 15 16 16 18 23 26 23 24 21 26
29 30 31 34 37 38 39 41 41 42 42 41 40 39 34 26 23 22 22 23 20 29 33 23 19 18 15 12 16 16 15 15 17 19 19 21 21 19 20 23 20 24 27 27 26 26 27
28 31 34 35 37 38 39 41 42 43 43 42 41 37 28 23 26 22 22 20 30 31 24 26 23 18 17 18 17 15 17 17 18 21 20 21 20 22 21 23 22 20 23 28 28 26 27
29 32 34 36 37 39 40 41 43 44 44 43 41 33 25 20 21 18 18 24 32 27 27 24 24 20 22 19 20 22 23 24 20 20 25 26 28 16 17 19 23 22 23 25 34 33 35
29 33 33 34 36 38 40 41 42 42 44 46 36 28 23 20 11 17 19 29 31 28 26 28 27 27 26 21 23 26 27 28 24 17 24 26 27 20 19 19 17 21 23 26 32 34 41
28 30 31 33 35 37 38 39 41 43 45 42 31 27 23 21 17 17 22 28 26 22 26 25 30 25 32 28 29 28 26 23 24 21 20 26 32 25 24 20 21 21 21 26 26 36 40
25 28 29 32 34 36 37 40 42 44 46 37 28 29 22 20 18 22 27 26 26 25 26 26 29 31 27 31 30 31 27 29 28 29 27 27 29 30 26 23 26 22 24 25 31 34 39
20 23 27 31 33 36 37 40 42 43 44 34 29 31 22 20 26 23 27 25 25 25 25 26 26 27 28 30 30 27 27 26 28 28 32 27 29 34 34 35 30 28 30 30 36 35 31
21 25 28 30 33 35 37 40 42 44 41 29 31 26 22 20 29 29 26 26 25 27 26 28 27 26 28 28 30 23 23 27 29 29 25 27 26 34 36 28 24 26 27 29 33 34 43
22 25 27 29 32 34 37 40 42 44 39 28 28 30 25 23 23 27 30 28 27 23 24 26 27 29 30 30 25 27 31 27 31 32 32 30 31 35 38 40 39 42 34 33 35 41 45
22 24 26 28 31 33 36 39 42 44 36 27 29 28 26 29 28 29 28 28 30 30 26 27 27 27 27 27 29 29 30 34 33 35 31 29 38 37 38 40 42 45 49 44 40 40 47
20 22 24 27 29 32 35 37 40 42 34 29 30 29 28 28 27 29 29 29 30 29 32 30 26 26 25 25 26 35 35 32 35 32 32 30 43 41 46 42 42 47 43 43 46 45 48
18 21 22 26 27 30 33 35 37 38 35 30 28 26 27 28 29 30 31 30 31 31 26 23 25 30 30 28 26 25 25 26 28 31 33 32 35 40 52 40 44 49 38 40 42 40 42
16 18 21 24 25 27 31 33 35 35 35 29 27 27 29 31 31 30 31 29 30 30 28 25 26 25 24 26 27 25 23 21 22 23 24 31 33 35 44 41 49 40 33 33 38 40 39
15 17 20 22 24 26 29 31 33 34 33 31 26 27 28 31 30 28 31 30 30 29 27 26 25 24 27 26 29 31 29 28 24 23 24 20 26 34 38 40 44 44 39 38 39 42 34
13 16 18 20 22 25 27 29 30 32 32 29 27 25 26 30 28 27 29 29 31 31 29 25 25 27 26 24 26 29 31 30 28 28 24 21 19 26 31 40 42 33 32 30 30 46 32
11 13 17 18 21 25 27 27 28 29 30 29 26 24 25 28 24 27 28 29 27 28 28 27 28 26 24 25 27 28 29 26 30 30 31 30 29 31 33 36 35 31 29 26 33 35 27
10 13 15 18 20 22 26 26 25 26 28 28 27 25 26 26 26 22 24 26 25 24 27 27 29 24 25 25 26 27 27 26 26 24 28 29 30 30 29 32 34 21 24 26 26 26 28
8 11 15 17 19 21 24 25 24 25 28 26 27 24 22 23 23 22 20 20 19 19 21 22 23 23 21 23 24 25 27 26 27 33 23 27 21 29 26 28 28 26 25 25 27 29 28
Wind_Direction
11 9 5 6 5 4 6 7 8 10 14 17 18 18 19 23 24 27 30 33 36 41 44 45 52 40 49 57 71 80 71 76 102 113 119 101 125 267 262 259 262 262 268 264 274 255 265
10 8 5 5 4 3 3 5 6 7 10 10 9 11 14 17 19 22 27 30 32 37 42 49 51 39 52 42 62 51 52 72 93 110 130 96 106 270 272 270 252 271 267 267 262 262 262
9 7 6 4 3 1 1 2 4 5 5 3 2 5 8 13 16 20 23 27 30 34 40 46 44 42 39 49 55 37 52 76 88 122 127 126 345 285 287 271 267 264 268 266 261 260 270
7 5 3 1 360 359 358 358 359 360 359 358 357 359 3 9 13 16 19 20 23 29 34 35 41 34 27 46 33 59 65 55 41 98 89 108 318 303 295 289 274 258 261 261 266 264 270
7 3 0 358 357 356 356 355 355 355 354 354 354 355 357 2 5 8 10 14 19 24 33 36 28 27 13 27 44 49 64 62 37 44 44 69 8 115 300 299 275 264 261 261 270 264 267
6 5 3 0 358 355 353 351 350 351 351 351 351 351 353 358 360 0 1 8 15 19 28 31 17 13 15 25 36 35 34 69 45 68 112 97 131 160 167 171 183 264 263 265 262 266 264
3 2 0 1 358 355 353 350 348 346 346 345 346 348 349 351 353 353 358 2 358 357 3 355 0 359 12 14 16 27 36 41 31 52 131 145 178 191 185 188 196 262 271 267 269 269 266
358 359 358 358 357 354 351 348 345 343 342 343 343 344 346 348 351 353 1 358 358 354 340 330 294 307 324 358 360 12 37 37 15 306 8 269 216 212 207 204 207 234 256 273 274 273 268
355 352 352 353 355 353 351 350 347 342 340 340 340 342 344 346 348 357 356 356 358 355 339 338 336 324 309 332 340 344 13 346 331 287 254 246 307 247 252 246 232 240 220 279 276 278 274
355 351 348 348 350 352 350 347 346 343 340 340 340 342 344 344 353 352 349 353 353 354 336 341 354 358 0 359 340 332 325 331 326 305 291 285 287 293 254 251 256 241 278 279 279 279 274
350 351 350 347 347 347 347 344 342 341 340 340 340 341 342 347 344 346 348 349 351 355 331 352 356 9 3 349 350 348 327 312 308 312 312 304 301 278 271 254 274 281 283 278 278 270 281
351 351 351 348 346 346 346 344 343 341 341 340 340 340 343 347 346 345 348 349 353 337 327 340 349 347 344 329 331 338 334 321 320 306 301 298 303 296 289 287 275 286 286 288 284 281 261
347 347 347 346 346 346 346 345 344 342 342 341 341 341 344 348 343 352 351 350 332 325 342 337 340 344 334 329 326 318 318 314 306 310 301 301 288 290 290 289 290 280 283 284 285 272 273
343 346 346 344 345 345 346 346 345 343 343 343 342 347 354 352 357 355 359 342 327 334 332 338 336 331 322 326 317 314 312 306 301 300 304 302 300 290 287 270 283 273 271 274 282 284 289
343 344 346 349 347 347 347 348 348 347 344 338 350 356 0 7 16 12 356 332 331 336 339 336 334 330 326 324 316 314 307 304 306 295 292 301 298 305 301 290 280 289 270 276 280 281 285
344 348 349 350 350 350 351 350 344 337 336 349 1 5 11 18 31 14 349 336 337 344 340 337 327 329 318 320 320 321 318 320 315 317 309 303 296 297 299 302 293 277 294 287 278 282 282
349 352 354 354 354 352 348 344 343 343 342 358 5 358 12 16 15 357 340 339 340 342 343 337 332 324 318 317 314 311 309 310 310 305 307 303 297 297 299 296 294 294 291 290 285 279 283
8 7 1 356 355 351 350 346 345 347 349 2 1 350 7 11 352 353 344 349 350 346 344 337 334 327 329 328 320 314 311 308 315 311 303 302 300 295 294 292 293 292 287 287 282 284 288
2 360 357 355 353 354 352 350 348 347 353 3 357 360 13 13 349 346 347 345 345 345 349 345 339 338 333 323 318 320 319 315 315 311 310 309 301 298 299 301 301 292 294 290 289 287 278
357 355 356 356 356 356 354 353 352 352 356 5 0 354 1 5 1 352 348 347 347 355 351 349 337 329 325 321 316 313 311 315 312 306 306 305 296 291 289 288 292 289 292 292 287 280 280
357 357 357 359 357 357 357 357 355 355 3 9 3 357 358 349 350 347 347 345 342 343 348 346 339 340 335 323 316 311 309 307 306 304 303 302 294 294 292 292 290 288 284 286 286 284 279
358 0 360 359 359 358 360 0 360 358 5 6 358 356 355 348 350 348 347 344 341 342 343 340 338 334 333 328 323 314 313 312 306 308 303 302 293 294 290 293 293 288 288 288 285 284 283
360 360 2 2 3 4 4 4 4 5 8 4 2 0 353 349 347 345 344 343 342 343 348 353 347 335 328 327 327 322 319 314 309 307 304 301 300 297 289 298 295 288 291 289 288 286 286
3 5 5 6 7 8 8 7 7 9 11 9 5 0 351 346 346 346 344 347 344 343 339 339 338 334 337 333 327 322 315 307 303 297 296 299 300 300 295 298 288 297 302 298 292 290 290
359 4 4 5 6 7 7 7 10 10 12 11 12 5 357 347 347 350 347 347 348 346 344 342 342 344 339 337 330 326 326 323 324 320 313 298 300 298 296 294 295 295 299 298 296 291 296
358 0 4 6 7 6 6 7 10 10 11 14 13 13 3 353 351 351 350 350 349 348 347 347 348 346 345 339 335 328 325 324 322 322 332 325 310 302 303 299 297 305 312 312 307 289 301
357 1 2 2 360 0 3 6 8 10 10 11 10 13 5 356 357 354 352 351 353 350 347 349 351 350 355 345 335 330 327 330 322 320 318 316 313 304 301 300 304 312 319 317 295 298 310
352 355 358 359 358 2 1 2 6 10 9 8 6 10 3 357 353 2 359 354 357 359 354 354 354 360 355 348 341 338 333 335 330 330 325 320 315 311 311 305 302 330 327 314 317 318 315
348 351 353 354 357 358 1 7 11 9 7 10 3 8 10 1 358 2 11 15 12 9 4 5 360 0 3 355 351 345 336 335 331 322 333 322 322 315 311 305 314 317 313 315 316 312 313